STARLINK-36865, 67930

Orbit data source: Space-Track

STARLINK-36865, 67930 is a payload satellite owned by SpaceX/Seattle (US) in LEO that was launched on Sun, 22 Feb 2026 UTC via an FALCON 9 launch vehicle from the Air Force Eastern Test Range (AFETR). Payload-class satellites include a variety of spacecraft equipped with specific instruments for various scientific and technological missions. These include communications satellites like Starlink; space stations such as the ISS; scientific satellites like the Hubble; Earth observation satellites from companies like Planet Labs, Umbra, and HawkEye 360; GPS; miniature CubeSats for education and research; and military/defense satellites.

Loading next visibility...
Identifier
67930, 2026-036AC
Orbit
LEO
Country
Flag of USUS
Related business
Manufacturer
SpaceX/Seattle
Mission
Operational Commercial Communications
Bus & Motor
STARLINK V2MO, Unknown motor
Mass
575 kg wet, ~530 kg dry
Launch date (UTC)
2026-02-22 (4 months ago)
Launch vehicle
FALCON 9
Launch site
Air Force Eastern Test Range (AFETR)
Object type
Payload
Rocket body
Debris
Shape & HBR
Box + 2 Pan, 17.7 m
Radar Cross Section
36.964 m², Large (>1 m²)

Expand to show TLE details & history
Last TLE update: 20 hours ago

TLE from 20 hours ago
0 STARLINK-36865
1 67930U 26036AC  26171.00746803  .00014205  00000-0  52440-3 0  9997
2 67930  43.0004  27.1214 0001450 275.6701  84.3985 15.27601406 19372
Epoch: 2026-06-20T00:10Z
TLE epoch observation values (Epoch: 2026-06-20T00:10:45.237Z)
Latitude
-0.00005°
Longitude
116.20459°
Altitude
482.664 km
Speed
7.626 km/s
True Right ascension
01h 48m 29s
True Declination
0° 00' 00"
Sunlit
Object was in daylight at epoch
Visualization orbit readout
Latitude
Unknown
Longitude
Unknown
Altitude
Unknown
Speed
Unknown
Apparent Right ascension
Unknown
Apparent Declination
Unknown
Sunlit
N/A
Visualization observer readout
Local Sidereal Time
07:19:47
Azimuth
Unknown
Elevation
Unknown
Doppler factor
Unknown
Orbital elements
Apogee altitude
485.925 km
Perigee altitude
483.935 km
Semi-major axis
6,863.067 km
Eccentricity
0.00015
Inclination
43.0004°
RAAN
27.1214°
Arg. of periapsis
275.6701°
True anomaly
84.41504°
Mean anomaly
84.3985°
Eccentric anomaly
84.40677°
Mean motion
3.81738 °/min
Orbital period
94.31 mins
BSTAR
0.0005244
Loading maneuver chart data...
Computing Atmospheric mass density...
Loading historical data...
Loading historical data...
Loading historical data...
Loading historical data...
Loading historical data...
Loading historical data...
Loading historical data...

Documentation

Showing up to 5 results
|